Dewpoint
66 69 72 73 73 72 71 71 71 72 72 72 71 72 72 71 71 70 70 70 70 69 68 69 70 69 69 69 69 70 69 69 69 69 69 68 68 68 68 68 68 66 69
64 68 71 72 73 72 71 71 72 72 72 71 72 71 71 71 71 70 70 70 70 70 69 69 68 68 68 68 69 68 68 68 67 68 68 68 67 67 67 68 67 66 67
62 69 69 71 72 72 72 71 72 72 72 71 72 71 71 71 71 70 70 70 70 69 68 68 67 67 67 67 68 68 67 67 67 67 66 63 63 66 66 66 67 66 65
59 66 69 71 72 72 72 71 71 72 72 71 71 71 71 71 71 70 70 69 69 68 67 67 67 66 66 67 67 67 67 67 66 65 60 60 61 65 65 65 64 64 64
59 62 69 70 71 72 71 71 71 71 71 71 71 71 71 71 71 70 69 68 68 68 66 66 66 66 66 66 66 66 66 67 64 59 57 57 59 62 63 63 62 62 62
60 62 69 69 70 70 71 71 69 70 68 70 70 71 71 71 70 70 69 68 68 68 67 66 66 65 65 65 64 64 64 63 62 57 56 60 60 63 62 61 61 61 62
64 66 69 68 68 68 70 70 68 66 65 67 69 68 69 70 70 69 68 68 67 67 67 66 65 64 64 64 63 62 61 61 56 53 55 57 58 60 61 60 60 60 60
67 68 68 67 66 66 68 66 66 65 63 66 67 68 69 69 68 67 67 67 66 66 66 66 65 64 64 63 61 60 60 61 54 52 54 56 60 60 60 59 59 59 58
67 67 68 69 68 66 67 64 64 65 63 63 63 65 68 67 67 66 67 66 66 66 65 65 64 64 63 62 60 59 59 61 52 53 55 56 60 59 59 59 58 58 58
65 66 66 66 68 68 66 63 62 64 63 61 62 63 66 66 66 66 66 66 65 65 64 64 64 63 62 61 59 59 59 61 51 52 54 57 59 58 58 58 58 58 57
64 65 65 65 67 68 67 64 63 64 62 60 63 61 65 65 65 66 64 65 64 64 63 63 63 62 61 59 59 59 59 51 51 53 55 60 59 58 58 57 57 57 57
63 64 63 64 65 66 65 65 63 63 63 62 62 61 65 64 65 64 64 64 64 63 63 62 61 60 57 54 55 57 54 51 52 53 56 60 59 58 58 57 57 56 56
63 63 63 63 65 65 64 65 63 63 62 62 61 60 66 65 64 64 62 62 61 62 59 59 57 51 50 51 53 53 53 52 52 53 57 60 59 58 57 57 56 56 55
61 63 63 63 64 64 65 64 63 62 60 62 63 63 65 64 64 63 61 60 57 56 55 52 52 52 51 50 53 53 52 52 53 54 57 60 59 58 57 57 56 55 54
58 62 64 63 63 63 63 64 64 63 62 63 64 65 65 63 64 63 60 56 53 54 53 52 54 51 53 50 53 51 51 52 53 54 56 59 59 58 57 56 56 55 54
57 60 63 62 62 62 63 63 64 63 62 64 64 65 64 62 63 62 59 55 55 54 53 53 54 53 52 52 52 52 50 52 52 54 55 57 58 59 58 56 55 54 54
57 60 60 61 61 61 62 62 62 64 63 62 63 63 63 62 61 60 60 56 56 55 55 56 55 54 52 50 51 52 52 51 52 53 53 55 57 58 58 58 56 55 54
57 59 60 60 60 60 61 61 61 63 62 62 62 63 62 61 60 59 59 57 57 57 55 56 55 52 51 51 50 50 50 50 52 53 53 53 54 54 57 58 58 57 55
58 58 59 59 59 60 61 61 61 62 63 62 62 62 62 60 59 59 59 59 57 57 58 55 54 53 51 50 50 50 52 51 51 50 53 52 53 52 53 57 58 57 57
57 58 59 59 60 60 60 61 61 62 62 62 61 61 61 59 59 58 58 58 58 56 56 55 53 53 51 50 44 48 50 51 52 52 51 52 54 53 52 52 54 54 57
57 58 58 58 59 59 58 58 59 59 61 61 61 60 60 58 56 55 55 55 54 54 54 55 54 51 51 50 48 48 47 49 49 50 52 52 52 53 53 54 53 52 53
56 57 58 57 58 58 58 58 58 59 59 59 58 58 58 56 56 54 53 53 54 54 54 54 53 52 51 50 48 46 46 47 48 49 48 48 50 51 52 52 53 52 51
55 57 57 57 58 58 59 58 57 58 58 57 57 57 57 56 56 55 55 54 55 55 54 55 54 53 51 52 51 52 50 48 48 49 49 50 48 50 49 51 52 53 53
55 56 56 57 57 57 58 57 56 55 54 55 55 56 57 57 57 56 57 57 56 57 56 56 55 55 54 51 51 50 54 53 50 49 49 49 50 51 50 50 49 52 52
56 57 56 56 57 58 57 57 55 54 54 54 54 54 56 56 56 56 57 58 57 57 58 58 56 56 56 56 55 54 53 53 53 52 50 51 49 49 50 52 50 50 49
56 56 57 56 56 57 57 57 55 54 54 53 52 52 53 54 55 55 55 57 57 56 58 57 57 57 57 57 56 56 54 53 52 52 51 51 51 52 51 50 50 50 49
Lifted_Index
-5 -6 -6 -7 -7 -6 -7 -7 -8 -8 -8 -7 -7 -6 -6 -6 -5 -4 -4 -3 -3 -3 -2 -2 -2 -1 -1 -0 -0 -0 -0 -0 -0 -0 -0 -0 0 0 0 0 0 -0 -0
-6 -6 -7 -7 -7 -7 -7 -8 -8 -9 -8 -8 -7 -7 -6 -6 -5 -5 -4 -4 -3 -3 -3 -2 -1 -1 -0 -0 0 0 0 0 -0 -0 -0 0 0 1 1 1 0 0 0
-5 -6 -7 -7 -8 -8 -8 -8 -9 -9 -9 -8 -8 -7 -7 -6 -6 -5 -4 -4 -3 -3 -3 -2 -1 -0 0 0 0 0 0 0 0 1 1 1 1 1 1 1 1 1 1
-5 -6 -7 -7 -8 -8 -8 -8 -8 -9 -9 -9 -8 -8 -7 -7 -6 -5 -5 -4 -3 -3 -2 -2 -1 0 1 1 1 0 0 1 1 2 2 2 2 2 2 2 2 2 2
-4 -5 -7 -7 -7 -8 -8 -8 -8 -8 -8 -9 -8 -8 -8 -7 -6 -5 -4 -4 -3 -3 -2 -1 -0 0 1 1 1 1 1 1 2 3 3 3 3 2 2 2 3 3 3
-3 -5 -6 -7 -7 -7 -8 -8 -7 -6 -6 -7 -8 -7 -7 -7 -6 -5 -4 -3 -3 -3 -2 -1 -1 0 1 1 2 2 2 2 2 3 3 3 3 3 3 3 3 3 3
-4 -5 -6 -6 -6 -6 -7 -7 -6 -5 -4 -4 -5 -6 -6 -6 -5 -4 -3 -3 -3 -3 -2 -1 -0 0 1 2 2 2 3 3 3 4 4 4 3 3 4 4 4 4 4
-4 -5 -6 -6 -6 -6 -6 -5 -5 -3 -2 -2 -2 -3 -5 -6 -4 -3 -2 -2 -2 -2 -1 -1 0 1 2 3 3 4 4 4 4 4 5 5 4 5 5 5 5 5 5
-4 -5 -5 -5 -5 -5 -5 -5 -4 -2 -1 1 1 -1 -4 -5 -3 -2 -2 -1 -1 -1 -0 0 1 2 2 4 5 5 5 5 5 5 5 5 5 5 6 6 6 5 5
-4 -4 -5 -5 -5 -5 -4 -4 -3 -1 1 2 3 1 -2 -3 -3 -2 -1 -1 -0 0 1 1 2 3 4 5 6 6 5 5 5 6 6 6 6 6 6 6 6 6 6
-4 -4 -4 -4 -5 -5 -4 -2 -1 0 2 3 3 2 -0 -2 -2 -2 -1 -0 0 1 1 2 3 4 5 6 6 6 5 5 6 6 6 6 6 6 6 6 6 6 6
-4 -3 -3 -3 -4 -4 -3 -1 0 1 2 3 4 3 0 -2 -2 -1 -0 1 1 2 2 3 4 5 6 6 6 6 5 6 6 6 6 6 6 6 6 7 6 6 6
-3 -2 -2 -2 -3 -3 -2 -0 1 2 3 3 4 3 0 -2 -2 -1 0 2 2 3 4 5 6 6 7 6 6 5 5 5 6 6 6 6 6 6 6 6 6 6 6
-2 -2 -1 -1 -1 -1 -1 -0 1 2 3 3 3 2 0 -1 -2 -1 1 3 4 4 5 6 6 7 7 6 6 5 5 5 5 6 6 6 5 6 6 6 6 6 6
-1 -1 -0 0 0 0 0 -0 1 2 3 3 2 1 0 -1 -2 -1 1 3 4 5 6 6 6 6 6 6 5 5 5 5 5 6 6 6 6 5 5 5 6 6 6
0 1 1 1 1 1 1 1 1 2 2 2 1 1 -0 -1 -1 -0 1 3 4 5 5 5 5 5 6 6 5 5 5 5 5 6 6 6 6 5 5 5 5 5 6
1 2 2 2 2 2 2 2 1 1 1 1 1 0 0 -0 0 0 1 2 3 4 4 4 4 5 6 6 5 5 5 5 5 5 6 6 6 5 5 5 5 5 5
2 2 3 3 3 3 2 2 2 1 1 2 2 1 1 1 1 1 1 2 2 3 3 3 4 5 6 6 6 5 5 5 5 5 5 5 5 5 5 4 4 4 5
2 3 3 3 3 3 3 3 2 2 2 2 2 2 2 2 2 2 2 2 2 2 3 3 4 5 6 6 6 6 5 5 5 5 5 5 5 5 4 4 4 4 4
2 2 3 3 3 3 3 3 3 2 3 3 3 3 3 3 3 2 2 2 2 2 3 4 5 6 6 6 6 6 6 5 5 5 5 5 4 4 4 3 4 4 4
2 2 2 3 3 3 3 3 3 3 3 3 3 3 3 3 3 3 3 3 3 3 4 5 5 6 6 7 6 6 6 5 5 5 5 5 4 4 3 3 3 3 3
2 2 2 3 3 3 3 3 2 3 3 3 3 3 3 4 4 4 4 4 4 4 5 5 6 6 6 6 6 5 5 4 4 5 5 5 5 4 4 4 3 3 3
2 2 2 2 3 3 3 3 2 2 2 2 2 3 4 5 5 5 5 5 5 5 5 5 5 5 5 5 4 4 3 3 3 4 4 4 4 4 4 4 4 3 3
1 1 1 2 2 3 3 3 3 2 2 2 2 3 5 5 6 6 5 5 5 5 5 5 5 4 4 4 3 3 3 2 2 2 3 3 3 3 3 3 3 3 3
1 1 1 2 2 2 3 3 3 3 3 2 3 4 5 6 6 5 5 5 5 4 4 4 4 3 3 2 2 2 2 2 2 2 2 2 2 2 2 2 2 2 3
1 1 1 2 2 2 2 3 3 3 3 3 3 4 5 6 6 5 5 5 4 4 4 3 3 3 2 2 2 2 2 1 1 1 1 1 2 2 2 2 2 2 2